This demonstration page uses our WeatherBlox Daily Observations layout. Learn more.

Left ArrowRight Arrow

36.19886, -115.1175

Hourly Observations for May 21, 2022

Temp ( °F °C ) Dew Point ( °F °C ) Humidity (%) Winds ( mph kmh ) Pressure ( in mb ) Visibility ( mi km ) Precip ( " mm )
12:53 am 00:53 Clear 68 20 10 -12.2 10 10 N 13 20 29.83 1010 10 16 0.00 0.00
1:53 am 01:53 Clear 68 20 10 -12.2 10 10 N 8 13 29.83 1010 10 16 0.00 0.00
2:53 am 02:53 Clear 66 18.9 12 -11.1 12 12 WSW 5 7 29.85 1011 10 16 0.00 0.00
3:53 am 03:53 Clear 65 18.3 10 -12.2 11 11 Calm 29.86 1011 10 16 0.00 0.00
4:53 am 04:53 Clear 62 16.7 11 -11.7 13 13 NNW 7 11 29.87 1012 10 16 0.00 0.00
5:53 am 05:53 Sunny 61 16.1 11 -11.7 14 14 N 6 9 29.89 1012 10 16 0.00 0.00
6:53 am 06:53 Sunny 64 17.8 13 -10.6 13 13 NNW 9 15 29.92 1013 10 16 0.00 0.00
7:53 am 07:53 Sunny 67 19.4 13 -10.6 12 12 NNW 12 19 29.94 1014 10 16 0.00 0.00
8:53 am 08:53 Sunny 69 20.6 13 -10.6 11 11 NW 8 13 29.94 1014 10 16 0.00 0.00
9:53 am 09:53 Sunny 72 22.2 12 -11.1 10 10 undefined N/A 29.94 1014 10 16 0.00 0.00
10:53 am 10:53 Sunny 73 22.8 13 -10.6 10 10 E 6 9 29.93 1014 10 16 0.00 0.00
11:53 am 11:53 Sunny 75 23.9 13 -10.6 9 9 Calm 29.92 1013 10 16 0.00 0.00
12:53 pm 12:53 Sunny 76 24.4 13 -10.6 9 9 Calm 29.91 1013 10 16 0.00 0.00
1:53 pm 13:53 Sunny 79 26.1 14 -10 8 8 Calm 29.89 1012 10 16 0.00 0.00
2:53 pm 14:53 Sunny 81 27.2 14 -10 8 8 VRB 3 6 29.87 1012 10 16 0.00 0.00
3:53 pm 15:53 Sunny 82 27.8 14 -10 8 8 SSE 8 13 29.85 1011 10 16 0.00 0.00
4:53 pm 16:53 Sunny 83 28.3 14 -10 7 7 Calm 29.84 1011 10 16 0.00 0.00
5:53 pm 17:53 Sunny 84 28.9 14 -10 7 7 NNW 5 7 29.83 1010 10 16 0.00 0.00
6:53 pm 18:53 Sunny 84 28.9 14 -10 7 7 NW 6 9 29.84 1011 10 16 0.00 0.00
7:53 pm 19:53 Clear 82 27.8 14 -10 8 8 NNW 3 6 29.85 1011 10 16 0.00 0.00
8:53 pm 20:53 Clear 81 27.2 14 -10 8 8 Calm 29.88 1012 10 16 0.00 0.00
9:53 pm 21:53 Clear 79 26.1 16 -8.9 9 9 SE 3 6 29.90 1012 10 16 0.00 0.00
10:53 pm 22:53 Clear 74 23.3 19 -7.2 12 12 NNW 7 11 29.91 1013 10 16 0.00 0.00
11:53 pm 23:53 Clear 71 21.7 17 -8.3 13 13 NW 7 11 29.91 1013 10 16 0.00 0.00

Powered by AerisWeather